RYR980 EDDF-LHBP

Flight info

Callsign RYR980
Flight time N/A
Altitude 31000
Route SULUS7S/18 SULUS Z650 VEMUT/N0452F350 DCT PEPIK DCT NIT/N0402F230 M748 ARFOX
Aircraft B738/M-SDE2E3FGHIRWXY/LB1

Departure

Time 2026-05-06 18:26
Airport Frankfurt Main Airport (EDDF)

Arrival

Time N/A
Airport Budapest Liszt Ferenc International Airport (LHBP)
Time Latitude Longitude Altitude Speed Heading
2026-05-06 18:00 50.03841 8.54696 345 ft 0 kts 160°
2026-05-06 18:21 50.03811 8.54713 345 ft 18 kts 160°
2026-05-06 18:21 50.03724 8.54640 344 ft 18 kts 260°
2026-05-06 18:21 50.03672 8.54378 342 ft 19 kts 250°
2026-05-06 18:22 50.03640 8.54245 342 ft 20 kts 250°
2026-05-06 18:22 50.03595 8.54039 340 ft 21 kts 252°
2026-05-06 18:22 50.03542 8.53827 339 ft 18 kts 250°
2026-05-06 18:22 50.03502 8.53658 339 ft 14 kts 250°
2026-05-06 18:23 50.03472 8.53532 338 ft 9 kts 250°
2026-05-06 18:23 50.03451 8.53445 338 ft 15 kts 249°
2026-05-06 18:23 50.03400 8.53229 337 ft 28 kts 252°
2026-05-06 18:23 50.03356 8.53032 336 ft 0 kts 247°
2026-05-06 18:24 50.03350 8.53011 336 ft 9 kts 248°
2026-05-06 18:24 50.03324 8.52911 336 ft 15 kts 248°
2026-05-06 18:24 50.03316 8.52882 336 ft 0 kts 248°
2026-05-06 18:24 50.03292 8.52788 336 ft 23 kts 249°
2026-05-06 18:25 50.03203 8.52599 335 ft 15 kts 198°
2026-05-06 18:25 50.03165 8.52593 335 ft 0 kts 182°
2026-05-06 18:25 50.03164 8.52593 335 ft 2 kts 182°
2026-05-06 18:25 50.02885 8.52587 334 ft 77 kts 179°
2026-05-06 18:26 50.02131 8.52601 333 ft 138 kts 180°
2026-05-06 18:26 50.01037 8.52621 607 ft 176 kts 181°
2026-05-06 18:26 49.99983 8.52644 1593 ft 170 kts 184°
2026-05-06 18:26 49.99043 8.52625 2248 ft 178 kts 185°
2026-05-06 18:27 49.97752 8.52643 3004 ft 191 kts 177°
2026-05-06 18:27 49.96487 8.53404 3692 ft 209 kts 143°
2026-05-06 18:27 49.95533 8.55288 4037 ft 231 kts 120°
2026-05-06 18:27 49.94786 8.57577 3999 ft 241 kts 116°
2026-05-06 18:28 49.94168 8.59969 3980 ft 244 kts 104°
2026-05-06 18:28 49.93919 8.62719 4004 ft 267 kts 92°
2026-05-06 18:28 49.93831 8.65755 4567 ft 288 kts 92°
2026-05-06 18:28 49.93532 8.68783 5884 ft 285 kts 109°
2026-05-06 18:29 49.92478 8.71318 6965 ft 286 kts 139°
2026-05-06 18:29 49.90895 8.73150 8055 ft 287 kts 149°
2026-05-06 18:29 49.89404 8.74571 8981 ft 290 kts 150°
2026-05-06 18:29 49.87833 8.76513 10004 ft 295 kts 133°
2026-05-06 18:30 49.86662 8.79246 10631 ft 316 kts 119°
2026-05-06 18:30 49.85638 8.82427 10792 ft 347 kts 116°
2026-05-06 18:30 49.84342 8.86515 11169 ft 372 kts 117°
2026-05-06 18:30 49.83541 8.88913 11882 ft 374 kts 118°
2026-05-06 18:31 49.82384 8.92248 12873 ft 377 kts 119°
2026-05-06 18:31 49.81227 8.95489 13804 ft 381 kts 119°
2026-05-06 18:31 49.79915 8.99102 14835 ft 386 kts 120°
2026-05-06 18:31 49.78317 9.03486 16036 ft 392 kts 120°
2026-05-06 18:32 49.77871 9.04749 16357 ft 394 kts 119°
2026-05-06 18:32 49.76831 9.07955 17197 ft 398 kts 115°
2026-05-06 18:32 49.76236 9.10143 17702 ft 401 kts 112°
2026-05-06 18:32 49.75461 9.13635 18465 ft 407 kts 108°
2026-05-06 18:33 49.74753 9.17530 19341 ft 411 kts 106°
2026-05-06 18:33 49.74064 9.21787 20273 ft 415 kts 105°
2026-05-06 18:33 49.73380 9.26178 21116 ft 421 kts 105°
2026-05-06 18:33 49.72505 9.31807 22206 ft 426 kts 105°
2026-05-06 18:34 49.72031 9.34836 22735 ft 430 kts 106°
2026-05-06 18:34 49.71322 9.39307 23593 ft 433 kts 106°
2026-05-06 18:34 49.70598 9.43809 24410 ft 436 kts 107°
2026-05-06 18:34 49.69857 9.48362 25184 ft 440 kts 107°
2026-05-06 18:35 49.69104 9.52960 25970 ft 443 kts 107°
2026-05-06 18:35 49.68351 9.57598 26711 ft 447 kts 107°
2026-05-06 18:35 49.67784 9.62228 27416 ft 452 kts 101°
2026-05-06 18:35 49.67619 9.68590 28261 ft 464 kts 91°
2026-05-06 18:36 49.67887 9.72075 28788 ft 468 kts 85°
2026-05-06 18:36 49.68520 9.76816 29550 ft 471 kts 81°
2026-05-06 18:36 49.68965 9.79528 29989 ft 471 kts 80°
2026-05-06 18:36 49.69629 9.83326 30543 ft 470 kts 79°
2026-05-06 18:37 49.70426 9.87631 30752 ft 466 kts 79°
2026-05-06 18:37 49.71233 9.91387 30784 ft 462 kts 74°
2026-05-06 18:37 49.72872 9.96636 30785 ft 465 kts 65°